Regional Weather Roundup
Issued by NWS

Home | Current Version | Previous Version | Graphics & Text | Print | Product List | Glossary On
Versions: 1 2 3 4 5 6 7 8 9 10 11 12 13 14 15 16 17 18 19 20 21 22 23 24 25 26 27 28 29 30 31 32 33 34 35 36 37 38 39 40 41 42 43 44 45 46 47 48 49 50
000
ASUS43 KDTX 272301
RWRMI
MICHIGAN HOURLY REGIONAL WEATHER ROUNDUP
NATIONAL WEATHER SERVICE DETROIT/PONTIAC MI
600 PM EST MON FEB 27 2017

NOTE: "FAIR" INDICATES FEW OR NO CLOUDS BELOW 12,000 FEET WITH NO
SIGNIFICANT WEATHER AND/OR OBSTRUCTION TO VISIBILITY.

MIZ047>049-052>055-059>063-066>070-074>076-081>083-280000-
SOUTHEAST LOWER MICHIGAN

CITY           SKY/WX    TMP DP  RH WIND       PRES   REMARKS
ADRIAN         CLOUDY    47  35  63 SW8       30.18S
ALMA           CLEAR     46  28  49 S5        30.14S
ANN ARBOR      CLOUDY    47  34  60 S6        30.17S
BAD AXE        PTCLDY    38  28  66 SE6       30.18S WCI  34
CARO           CLEAR     45  27  49 CALM      30.15S
DETROIT CITY   CLOUDY    46  33  60 S10       30.20R
DETROIT        CLOUDY    47  34  60 S10       30.19S
FLINT          MOCLDY    48  28  46 S8        30.16R
GROSSE ILE     MOCLDY    42  33  69 S9        30.19S
HILLSDALE      CLOUDY    45  32  61 S6        30.15S
HOWELL         CLEAR     46  30  54 S8        30.15S

CITY           SKY/WX    TMP DP  RH WIND       PRES   REMARKS
JACKSON        PTCLDY    47  31  53 S9        30.16R
LAMBERTVILLE   CLOUDY    49  34  55 S5        30.19R
LANSING        MOCLDY    48  26  42 S10       30.15R
LAPEER         MOCLDY    47  28  47 SE6       30.16S
MASON          MOCLDY    48  34  59 S7        30.14S
MONROE         CLOUDY    47  36  63 S8        30.18S
MT. CLEMENS    MOCLDY    44  34  68 S15       30.17R
PONTIAC        PTCLDY    47  30  51 S8        30.15R
PORT HOPE        N/A     36  32  85 SE9       30.17S WCI  29
PORT HURON     CLEAR     45  30  57 S7        30.19S
TRI CITIES     CLEAR     47  30  51 S5        30.15S
MIDLAND        MOCLDY    47  27  46 S5        30.14S
TROY           MOCLDY    48  30  49 S8G17     30.20R
SAGINAW HB     CLEAR     45  30  57 S3        30.15R
$$
MIZ043>046-050>051-056>058-064>065-071>073-077>080-280000-
SOUTHWEST LOWER MICHIGAN

CITY           SKY/WX    TMP DP  RH WIND       PRES   REMARKS
BATTLE CREEK   PTCLDY    47  33  58 S13       30.14R
BENTON HARBOR  PTCLDY    50  31  48 S8        30.12S
BIG RAPIDS     MOCLDY    44  28  52 SW6       30.11S
COLDWATER      MOCLDY    47  31  53 S6        30.15S
FREMONT        FAIR      45  23  42 SW5       30.11F
HOLLAND        CLEAR     45  33  63 W7        30.13S
GRAND RAPIDS   MOCLDY    48  28  46 SW5       30.12R
IONIA          FAIR      46  28  48 S6        30.12S
KALAMAZOO      MOCLDY    49  31  49 S8G16     30.13S
LUDINGTON      CLOUDY    41  31  67 S8        30.10S
MARSHALL       PTCLDY    48  32  54 S7        30.14S
MOUNT PLEASANT PTCLDY    46  28  48 S6        30.12S
MUSKEGON       MOCLDY    44  31  60 S8        30.12F
SOUTH HAVEN    CLOUDY    47  32  56 CALM      30.12S
$$
MIZ016>042-280000-
NORTHERN LOWER MICHIGAN

CITY           SKY/WX    TMP DP  RH WIND       PRES   REMARKS
ALPENA         CLEAR     34  29  82 E8        30.15F WCI  27
BEAVER ISLAND  CLEAR     35  23  62 S5        30.10F WCI  31
BELLAIRE       CLOUDY    40  24  51 CALM      30.10F
CADILLAC       CLOUDY    40  24  52 S3        30.09S
CHARLEVOIX     CLOUDY    36  24  64 CALM      30.13F
FRANKFORT      PTCLDY    38  29  70 CALM      30.10F
GAYLORD        CLOUDY    39  19  44 SW3       30.09S
GRAYLING       MOCLDY    42  21  43 S7        30.11S
HARBOR SPRINGS PTCLDY    38  19  46 CALM      30.11F
HOUGHTON LAKE  CLOUDY    40  22  48 S5        30.12R
MANISTEE       CLOUDY    41  26  55 S5        30.10F
OSCODA         CLEAR     36  27  70 S12       30.17S WCI  28
PELLSTON       CLEAR     39  18  42 CALM      30.12S
ROGERS CITY    CLEAR     35  25  68 SE7       30.15S WCI  29
TRAVERSE CITY  CLOUDY    44  19  36 SW5       30.10S
$$
MIZ007>008-015-280000-
EASTERN UPPER MICHIGAN

CITY           SKY/WX    TMP DP  RH WIND       PRES   REMARKS
KINROSS        PTCLDY    28  18  66 S12       30.12S WCI  18
MACKINAC ISLAN CLEAR     31  24  75 SE8       30.12S WCI  23
NEWBERRY       PTCLDY    30  23  73 S10       30.07S WCI  21
S. S. MARIE    PTCLDY    31  17  56 SE7       30.12R WCI  24
MUNISING         N/A     37  25  61 S9        30.02S WCI  30
$$
MIZ004>006-011>014-085-280000-
CENTRAL UPPER MICHIGAN

CITY           SKY/WX    TMP DP  RH WIND       PRES   REMARKS
MANISTIQUE     CLEAR     33  32  96 S7        30.08S WCI  27
ESCANABA       CLEAR     35  27  72 S9        30.06S WCI  28
MENOMINEE      CLEAR     38  25  59 S9        30.06S WCI  31
SAWYER-GWINN   CLEAR     36  21  55 S10       29.99S WCI  28
$$
MIZ001>003-009>011-084-280000-
WESTERN UPPER MICHIGAN

CITY           SKY/WX    TMP DP  RH WIND       PRES   REMARKS
IRON MOUNTAIN  CLEAR     38  19  46 S10       29.98R WCI  31
HOUGHTON       MOCLDY    28  21  75 E6        29.94F WCI  22
COPPER HARBOR    N/A     30  23  75 CALM      29.98F
IRONWOOD       CLEAR     41  17  38 S10       29.90F
$$

ABBREVIATIONS USED IN REMARKS
   TC - TEMPERATURE IN CELSIUS
  WCI - WIND CHILL INDEX
   HX - HEAT INDEX
  VSB - VISIBILITY





USA.gov is the U.S. government's official web portal to all federal, state and local government web resources and services.